BEIJING 1 1 28890U 05043A 26209.17141652 .00000252 00000+0 57977-4 0 9992 2 28890 98.2961 342.6233 0015209 149.1604 211.0494 14.63554424106645 HUANJING 1A (HJ-1A) 1 33320U 08041A 26209.22838455 .00001008 00000+0 12664-3 0 9990 2 33320 97.6706 193.4873 0019314 8.8543 351.3009 14.84075721964491 HUANJING 1B (HJ-1B) 1 33321U 08041B 26209.21635344 .00001180 00000+0 14833-3 0 9993 2 33321 97.6544 196.5226 0037694 50.3911 310.0621 14.83389893964499 YAOGAN-4 1 33446U 08061A 26208.77871887 .00001051 00000+0 13493-3 0 9995 2 33446 97.9303 141.9912 0012954 302.2414 57.7544 14.83272625951688 DEIMOS-1 1 35681U 09041A 26209.22115953 .00000643 00000+0 10197-3 0 9997 2 35681 97.7444 4.6811 0002729 74.1903 285.9607 14.75275995912939 UK-DMC 2 1 35683U 09041C 26209.16985490 .00000464 00000+0 74461-4 0 9999 2 35683 97.8881 343.1467 0001808 94.7549 265.3868 14.76108952912611 DMC3-FM1 1 40715U 15032A 26209.21973941 -.00000075 00000+0 -27003-5 0 9993 2 40715 97.6416 72.7759 0004044 285.2018 74.8750 14.85777193596000 DMC3-FM2 1 40716U 15032B 26209.17427167 .00000512 00000+0 64856-4 0 9993 2 40716 97.6467 74.3337 0004617 291.4092 68.6631 14.85784900595994 DMC3-FM3 1 40717U 15032C 26209.19789625 .00001131 00000+0 13604-3 0 9998 2 40717 97.6520 76.1353 0003735 293.0519 67.0302 14.85776955596007